Estación de Tranapuente INIA

Ultimos registro cada 15 minutos 53
Estación Fecha / Hora Temperatura Humedad Lluvia Velocidad Dirección Radiación Presion
53 Tranapuente INIA 01-09-2026 13:00 14,9 77,5 0 4,2 12 308,5 1011
52 Tranapuente INIA 01-09-2026 12:45 14,8 75,5 0 2,4 9 304 1012
51 Tranapuente INIA 01-09-2026 12:30 14,7 80,3 0 1,7 356 191,9 1012
50 Tranapuente INIA 01-09-2026 12:15 15,1 76,1 0 2,6 7 211,4 1012
49 Tranapuente INIA 01-09-2026 12:00 15 77 0 2,3 27 285,2 1012
48 Tranapuente INIA 01-09-2026 11:45 15 76,6 0 2,7 38 335,5 1012
47 Tranapuente INIA 01-09-2026 11:30 14,5 77,4 0 1,8 59 352,7 1012
46 Tranapuente INIA 01-09-2026 11:15 14,4 80,5 0 1,5 46 219,2 1012
45 Tranapuente INIA 01-09-2026 11:00 14,2 82,2 0 1,6 44 337,6 1012
44 Tranapuente INIA 01-09-2026 10:45 12,5 90,9 0 0,3 66 474,3 1012
43 Tranapuente INIA 01-09-2026 10:30 11,1 97,6 0 0 0 253,5 1012
42 Tranapuente INIA 01-09-2026 10:15 11,2 97,5 0 0 162 274,3 1012
41 Tranapuente INIA 01-09-2026 10:00 10,7 98,6 0 0 0 358,6 1013
40 Tranapuente INIA 01-09-2026 09:45 9,8 99 0 0 0 277,7 1013
39 Tranapuente INIA 01-09-2026 09:30 9,3 99,9 0 0 0 97 1013
38 Tranapuente INIA 01-09-2026 09:15 9 99,5 0 0 0 41,4 1012
37 Tranapuente INIA 01-09-2026 09:00 8,9 99,3 0 0 0 43,6 1012
36 Tranapuente INIA 01-09-2026 08:45 8,8 99,5 0 0 0 66 1012
35 Tranapuente INIA 01-09-2026 08:30 8,6 99,8 0 0 0 36,6 1012
34 Tranapuente INIA 01-09-2026 08:15 8,3 99,8 0,2 0 0 21,4 1012
33 Tranapuente INIA 01-09-2026 08:00 8,3 99,8 0 0,1 112 16,2 1012
32 Tranapuente INIA 01-09-2026 07:45 8,3 99,7 0,5 0 0 2,6 1012
31 Tranapuente INIA 01-09-2026 07:30 8,2 99,7 0,8 0 0 1,2 1012
30 Tranapuente INIA 01-09-2026 07:15 8,2 99,6 0,9 0 0 0,4 1012
29 Tranapuente INIA 01-09-2026 07:00 8,2 99,6 0,4 0 0 0,2 1012
28 Tranapuente INIA 01-09-2026 06:45 8,2 99,5 0 0 0 0,2 1012
27 Tranapuente INIA 01-09-2026 06:30 8,2 99,4 0,2 0 0 0,2 1012
26 Tranapuente INIA 01-09-2026 06:15 8,2 99,5 0 0,2 115 0,2 1012
25 Tranapuente INIA 01-09-2026 06:00 8,2 99,4 0,3 0 0 0,2 1012
24 Tranapuente INIA 01-09-2026 05:45 8,2 99,5 0 0 0 0,2 1012
23 Tranapuente INIA 01-09-2026 05:30 8,1 99,3 0 0 0 0,2 1012
22 Tranapuente INIA 01-09-2026 05:15 8 99,4 0 0 0 0,2 1012
21 Tranapuente INIA 01-09-2026 05:00 8 99,5 0 0,2 136 0,2 1012
20 Tranapuente INIA 01-09-2026 04:45 8 99,5 0 0 0 0,2 1012
19 Tranapuente INIA 01-09-2026 04:30 8 99,4 0 0 0 0,2 1012
18 Tranapuente INIA 01-09-2026 04:15 8 99,4 0,1 0 0 0,2 1012
17 Tranapuente INIA 01-09-2026 04:00 8 99,5 0 0,1 140 0,2 1012
16 Tranapuente INIA 01-09-2026 03:45 8 99,3 0,2 0,4 151 0,2 1012
15 Tranapuente INIA 01-09-2026 03:30 8 99,2 0,3 0,8 162 0,2 1013
14 Tranapuente INIA 01-09-2026 03:15 8,2 99,2 0 0,1 174 0,2 1013
13 Tranapuente INIA 01-09-2026 03:00 8,2 99,2 0,4 0,2 138 0,2 1013
12 Tranapuente INIA 01-09-2026 02:45 8,2 99,3 0,6 0,3 154 0,2 1013
11 Tranapuente INIA 01-09-2026 02:30 8,3 99,3 0,2 0 161 0,2 1013
10 Tranapuente INIA 01-09-2026 02:15 8,4 99,2 0,1 0,7 156 0,2 1013
9 Tranapuente INIA 01-09-2026 02:00 8,4 98,9 0,3 0 193 0,2 1014
8 Tranapuente INIA 01-09-2026 01:45 8,4 99 0,2 0,8 168 0,2 1013
7 Tranapuente INIA 01-09-2026 01:30 8,5 98,6 0,3 0,4 154 0,2 1014
6 Tranapuente INIA 01-09-2026 01:15 8,5 98,5 0,3 0,2 164 0,2 1014
5 Tranapuente INIA 01-09-2026 01:00 8,7 98,5 0,3 0 156 0,2 1014
4 Tranapuente INIA 01-09-2026 00:45 8,7 98,2 0,1 0,3 171 0,2 1014
3 Tranapuente INIA 01-09-2026 00:30 8,8 97,8 0,2 0 0 0,2 1015
2 Tranapuente INIA 01-09-2026 00:15 8,8 97,7 1,7 0,3 146 0,2 1015
1 Tranapuente INIA 01-09-2026 00:00 8,8 97,4 0,3 0,1 170 0,2 1015